Wind_Speed
17 17 17 18 17 17 17 17 15 13 12 12 11 12 13 12 12 13 14 8 10 11 12 10 11 11 10 9 8 8 7 7 7 1 5 7 7 8 11 14 13 14 16
17 18 19 18 18 18 18 18 17 17 17 17 16 16 16 15 15 16 16 15 16 16 16 14 14 14 14 13 11 10 10 8 9 8 9 6 8 9 9 14 16 13 16
17 18 19 20 20 19 19 18 19 21 20 19 20 20 20 20 19 20 20 19 18 20 20 19 19 17 17 17 15 14 13 13 10 6 8 9 4 7 9 11 15 15 17
13 15 16 18 19 19 18 19 19 20 20 21 22 22 22 21 21 22 22 22 22 23 24 24 23 21 21 19 19 16 15 9 9 9 10 5 10 11 11 13 13 15 15
10 10 10 12 13 15 15 15 18 17 18 17 18 19 21 21 22 24 24 23 23 24 23 24 25 25 24 23 21 19 16 14 12 12 6 7 8 10 18 18 18 17 16
6 7 7 8 9 10 11 12 12 12 13 13 16 19 21 23 20 21 22 22 22 22 26 23 24 25 24 26 28 29 24 24 19 12 9 11 19 15 18 16 21 16 13
5 3 2 3 4 3 3 4 6 5 4 4 6 8 20 25 24 21 21 25 23 20 22 22 23 26 26 25 26 28 29 30 26 20 19 28 21 20 17 16 17 17 15
6 5 5 4 5 3 2 2 2 6 6 11 12 16 22 29 24 23 19 16 16 20 22 22 23 26 28 26 22 19 24 30 25 23 25 23 21 19 19 18 14 13 8
5 4 3 2 2 2 2 3 4 6 8 10 9 11 14 17 16 17 14 12 17 19 19 22 23 19 20 23 19 17 25 29 27 23 21 22 23 21 15 13 14 18 14
7 7 5 4 3 1 1 2 3 5 7 8 9 11 13 13 15 12 11 11 14 15 15 11 14 14 15 14 13 14 21 20 25 23 20 20 18 19 18 16 17 18 13
6 5 4 4 3 3 3 2 3 5 7 8 10 12 15 14 11 10 10 10 12 15 13 12 9 11 8 5 4 10 14 8 19 20 15 13 15 14 11 15 14 9 8
4 4 4 3 2 2 3 4 5 5 8 9 10 11 7 2 3 4 9 11 12 11 12 6 4 5 5 4 4 6 8 0 20 15 16 15 15 14 11 10 6 6 4
3 3 3 2 3 3 3 4 7 6 7 9 10 9 11 12 10 10 9 9 8 7 7 2 2 5 4 2 6 7 9 9 12 13 15 17 12 12 15 15 11 12 17
2 2 1 1 0 2 4 5 5 5 4 3 7 8 10 8 9 8 8 8 7 2 4 2 2 2 6 7 7 6 5 5 12 17 22 14 14 15 14 11 13 14 17
3 3 3 4 1 0 2 4 4 2 2 3 5 6 8 11 9 7 6 6 6 3 1 3 5 5 5 5 6 7 7 9 12 18 11 14 16 16 14 12 17 16 12
6 9 2 4 3 2 5 4 5 3 2 2 2 3 2 5 9 5 4 5 3 4 3 3 2 4 4 5 6 7 9 10 14 13 16 19 17 18 17 17 14 9 17
5 3 6 6 3 5 7 7 7 7 5 3 4 5 3 4 6 7 5 6 7 6 7 3 1 3 3 4 3 4 6 6 11 15 18 18 18 19 20 17 14 17 10
6 6 7 9 5 6 7 8 8 11 1 6 3 7 5 5 5 5 4 6 6 4 7 7 5 1 3 4 4 2 5 7 11 15 18 19 22 21 16 14 16 17 14
7 9 6 6 4 6 8 8 10 8 7 6 3 4 5 5 4 5 6 5 6 6 4 4 4 4 4 2 0 2 6 9 10 17 15 15 16 16 15 19 17 13 9
4 3 3 7 5 9 6 5 8 7 4 4 3 1 4 2 5 4 4 4 6 7 6 3 2 2 3 1 2 2 4 6 9 13 16 15 14 14 17 20 13 8 8
5 7 4 8 9 6 8 5 6 4 5 4 7 5 5 5 8 7 5 4 6 7 5 4 3 2 1 1 2 4 4 5 8 10 12 13 12 15 20 14 9 10 11
7 5 7 5 5 7 4 6 3 4 4 7 5 6 6 6 9 6 4 4 3 4 5 3 3 2 2 3 3 4 5 7 8 11 14 13 17 20 17 11 12 12 15
8 7 7 4 2 4 7 7 3 4 5 5 6 2 4 5 7 6 6 5 3 4 3 4 4 3 2 1 4 6 6 9 8 11 15 13 15 17 13 13 14 13 14
9 6 8 3 1 7 6 2 4 4 4 5 7 4 6 7 7 5 6 6 4 6 3 3 2 4 2 3 3 3 2 5 9 12 14 14 14 16 14 15 13 12 16
6 5 4 5 5 7 3 8 5 7 6 5 8 3 3 7 9 10 10 5 4 6 7 5 5 2 3 4 3 5 6 10 12 14 13 14 15 15 16 16 14 13 10
5 5 6 6 6 5 5 6 6 5 6 6 7 8 8 9 8 3 5 7 4 5 5 5 3 2 1 2 6 6 5 7 12 12 13 13 14 14 14 14 15 12 9
Wind_Direction
206 203 204 209 213 214 215 216 217 218 219 222 223 220 219 220 219 223 243 253 215 231 243 248 232 242 247 253 242 246 263 268 277 118 229 196 186 205 215 217 206 203 208
209 203 203 208 212 214 217 216 215 217 218 220 222 225 229 231 228 226 231 236 224 231 236 239 241 240 235 253 253 247 252 254 257 263 284 195 197 208 218 223 204 210 207
210 213 211 208 212 218 216 218 217 217 219 224 223 224 224 225 228 230 233 235 233 232 233 234 237 236 241 246 242 243 231 239 235 259 263 250 192 197 223 216 219 217 211
224 216 225 221 221 223 223 222 222 219 224 228 230 231 230 234 236 235 233 233 236 237 237 236 237 235 236 238 239 244 243 236 230 231 241 236 217 207 204 219 217 222 211
210 229 227 226 233 226 239 227 225 233 230 240 246 246 244 240 243 237 235 237 237 241 244 247 245 244 244 240 241 239 229 214 224 235 213 254 243 200 190 208 229 220 216
200 212 210 219 231 232 231 235 232 236 245 257 262 265 269 263 248 248 256 256 249 247 252 246 256 263 255 253 247 242 231 212 202 187 186 211 243 240 204 221 230 220 221
131 141 181 186 193 186 179 212 213 206 188 221 269 294 304 295 283 270 255 251 254 260 265 268 266 262 258 250 256 246 238 217 205 192 215 225 219 236 226 227 240 231 222
102 94 98 99 107 120 113 191 249 259 272 266 271 282 286 274 275 275 283 272 264 267 266 266 274 276 271 267 259 241 213 195 198 207 231 221 217 211 218 215 230 231 211
84 88 89 80 138 169 219 247 261 267 277 276 292 279 272 277 277 280 283 267 267 269 271 263 263 271 279 273 270 241 204 213 213 215 217 217 220 219 210 213 219 195 208
76 75 69 62 61 43 324 285 280 280 284 290 290 279 273 271 273 275 292 281 279 285 284 262 278 276 273 280 271 254 203 204 211 208 203 213 221 216 213 209 208 207 221
78 69 60 53 51 38 14 338 316 301 303 292 281 277 267 255 258 265 295 300 286 287 280 277 273 280 301 290 266 239 190 199 211 199 194 200 203 206 218 206 212 235 212
64 61 64 60 22 42 332 314 299 295 273 270 264 277 329 120 292 279 306 308 277 271 280 276 239 269 287 259 213 212 219 181 175 169 170 177 179 194 187 182 198 187 154
75 74 66 60 26 350 326 320 288 234 288 329 320 341 348 33 27 1 321 321 305 269 287 153 224 301 285 227 220 243 251 242 202 174 157 163 196 178 157 155 157 145 129
115 106 98 113 36 360 342 358 341 356 355 351 2 352 351 21 18 357 351 347 347 335 270 268 221 158 129 99 99 102 108 170 182 166 161 166 154 138 149 150 147 133 133
188 201 233 163 77 346 30 13 16 42 50 4 13 352 6 15 358 3 7 1 18 41 135 197 180 161 138 115 116 126 127 131 146 151 157 161 144 134 140 158 153 154 140
225 214 189 270 217 315 302 206 172 177 329 350 13 50 34 20 10 22 13 35 51 41 322 267 127 126 109 103 107 126 151 172 171 172 174 169 156 150 155 156 154 167 173
254 295 262 259 289 308 319 315 315 224 207 245 301 343 315 357 10 10 15 33 26 347 323 26 103 134 139 124 117 166 178 193 176 178 173 167 168 175 166 159 178 188 176
263 265 269 265 262 295 302 311 304 297 248 217 231 278 327 350 342 350 355 54 24 354 349 349 359 276 210 219 244 252 191 193 192 182 177 178 180 168 175 178 181 187 194
260 268 219 264 284 307 298 296 307 326 327 313 149 274 262 296 338 339 18 8 340 343 349 337 319 314 323 335 104 200 198 190 188 180 174 177 178 184 187 191 190 205 216
197 260 277 291 261 260 288 315 313 315 273 251 238 263 199 295 265 294 304 313 335 354 355 321 328 289 272 284 139 175 175 179 179 187 185 191 197 189 185 181 187 194 198
282 159 232 264 256 329 318 327 336 311 287 280 221 187 237 270 293 303 290 315 334 357 8 348 359 317 252 178 186 180 163 169 175 178 179 185 190 190 180 182 196 202 202
264 260 233 285 334 269 325 300 329 314 283 303 279 176 246 266 275 269 272 285 337 358 358 358 345 303 296 216 200 193 173 167 174 179 176 179 182 177 179 213 208 194 195
262 272 260 231 282 300 244 245 314 321 294 279 287 254 199 259 258 258 269 282 316 308 338 334 325 275 260 237 212 204 204 189 181 183 177 171 176 183 201 182 185 199 221
273 265 275 296 277 280 258 325 268 206 297 293 285 237 271 252 256 276 270 295 301 299 278 290 288 304 243 250 255 245 202 164 166 172 168 173 182 184 177 185 193 217 227
271 249 237 248 226 245 266 257 301 291 296 302 301 314 337 295 289 298 278 280 261 284 308 316 313 332 285 236 224 192 200 152 160 157 168 174 175 175 184 194 217 215 231
252 254 235 230 222 257 288 294 305 304 315 325 317 323 328 315 311 290 298 325 339 315 301 308 2 338 231 204 188 193 193 194 176 166 157 161 174 181 197 208 231 218 181
Height
806 810 813 816 819 821 823 825 825 826 827 828 830 831 833 833 833 834 834 835 834 834 834 835 835 836 835 834 834 835 836 836 835 835 835 834 838 841 844 846 848 850 851
802 805 808 812 814 816 818 820 821 822 823 824 825 826 827 828 828 828 830 829 830 830 829 830 831 832 832 832 831 832 833 833 834 834 836 837 836 838 841 843 845 847 850
798 801 803 805 808 809 811 813 815 816 817 818 820 819 819 820 821 822 823 823 823 823 823 824 824 825 826 826 827 827 828 831 832 834 835 835 836 837 840 841 842 843 844
796 798 800 802 803 804 806 808 809 811 813 814 815 815 815 816 817 817 817 818 818 817 817 817 817 817 818 820 822 823 825 826 830 830 830 832 834 832 835 840 840 842 841
796 797 797 800 800 801 802 803 805 808 811 814 815 815 814 812 812 811 811 811 812 811 811 812 812 812 812 813 815 818 820 822 826 827 828 832 833 832 831 833 836 838 839
795 796 798 800 800 801 802 804 806 808 809 810 809 810 806 808 806 806 809 810 808 807 807 804 806 807 806 807 807 809 811 813 818 820 823 827 829 831 828 830 831 833 836
797 798 799 799 800 801 802 803 803 804 807 805 807 807 811 813 810 806 802 802 803 802 802 801 801 799 797 798 798 798 800 802 805 811 816 815 819 825 826 826 829 830 832
798 799 800 801 802 803 804 804 805 803 804 805 802 800 801 808 807 805 802 800 800 799 798 797 796 794 793 795 793 791 791 797 799 800 805 811 815 817 820 821 825 829 831
799 800 800 801 801 803 804 804 804 804 804 803 801 802 803 805 803 800 798 796 796 794 792 792 791 790 789 788 786 785 788 792 795 797 800 806 811 815 817 821 824 827 827
801 802 802 802 802 802 803 803 804 803 802 801 800 802 803 802 800 799 797 796 792 788 787 786 786 786 785 783 783 785 785 787 790 794 799 803 809 812 814 815 819 824 824
803 803 803 802 802 802 803 803 803 802 802 801 800 799 796 794 793 793 793 791 790 786 784 784 784 782 782 782 781 782 783 785 788 792 796 802 806 809 813 814 819 821 823
803 803 803 803 802 802 802 802 801 800 799 797 795 792 787 787 790 789 789 786 786 787 785 783 783 783 782 781 783 784 785 786 787 791 794 799 803 806 810 813 817 817 820
802 802 802 802 802 802 801 801 799 798 796 795 791 790 789 788 789 789 788 786 783 783 783 781 783 782 781 781 782 784 785 786 788 791 794 797 802 805 807 812 817 819 820
802 803 803 803 803 802 799 798 797 796 796 795 793 792 791 790 791 790 789 786 784 782 781 782 783 783 782 782 783 784 785 786 787 791 795 799 804 805 808 814 817 819 821
802 802 802 800 801 800 799 800 799 799 798 797 796 796 795 793 794 791 789 787 784 782 782 783 783 784 784 784 785 786 788 790 792 793 797 801 804 805 810 814 817 818 821
800 798 797 798 798 798 797 797 798 798 797 797 796 796 796 794 792 791 789 787 786 785 784 784 783 783 784 784 786 786 789 791 793 795 797 802 804 806 810 815 818 822 822
799 798 798 798 796 797 796 795 793 794 793 794 794 794 794 793 791 790 789 789 788 786 784 784 784 785 786 786 786 788 789 791 793 794 796 801 804 808 811 815 818 822 825
799 798 799 796 795 796 795 794 792 788 788 790 791 792 793 791 791 791 790 788 788 787 786 786 786 786 787 786 786 788 790 791 793 793 796 801 804 807 812 814 817 821 823
798 795 795 793 794 796 796 792 788 788 788 788 789 790 791 791 790 789 788 788 787 787 787 787 786 786 786 786 787 788 790 790 791 794 798 801 804 808 810 813 817 820 822
795 796 796 794 791 790 788 788 789 788 787 786 786 788 789 790 789 788 789 788 786 785 785 785 786 787 787 787 788 788 789 789 791 794 798 800 803 805 808 812 816 818 819
791 793 795 794 789 789 788 788 789 789 786 785 783 786 788 789 787 786 785 785 785 784 784 785 785 786 786 787 787 788 789 790 792 795 798 801 803 805 808 812 816 817 819
791 789 788 788 789 789 788 788 788 788 787 783 781 783 786 788 787 785 785 784 784 785 785 785 785 786 786 786 787 788 789 790 792 794 796 799 801 805 808 812 813 815 817
788 786 785 786 789 791 789 785 785 785 785 784 783 782 785 785 783 783 782 782 784 785 785 786 785 785 786 786 787 787 788 789 791 793 795 798 802 805 808 809 811 815 816
785 786 784 785 788 788 784 784 783 784 784 780 779 779 780 780 779 780 781 782 782 784 783 785 785 786 785 786 786 786 786 788 790 792 796 799 801 804 806 810 811 812 812
783 782 785 785 784 784 783 783 781 780 779 779 778 777 780 780 779 779 779 780 781 783 783 784 783 783 785 785 786 786 787 788 790 793 796 798 801 805 807 808 809 810 809
782 782 782 782 784 784 782 781 780 780 779 779 779 778 778 778 777 778 778 780 781 782 782 783 783 784 785 785 785 786 788 789 791 793 796 799 802 805 806 807 808 807 808